Regional Weather Roundup
Issued by NWS Little Rock, AR

Home | Current Version | Previous Version | Graphics & Text | Print | Product List | Glossary On
Versions: 1 2 3 4 5 6 7 8 9 10 11 12 13 14 15 16 17 18 19 20 21 22 23 24 25 26 27
000
ASUS44 KLZK 012005
RWRLZK

WEATHER ROUNDUP FOR ARKANSAS
NATIONAL WEATHER SERVICE LITTLE ROCK AR
300 PM CDT SUN MAY 01 2016

NOTE: "FAIR" INDICATES FEW OR NO CLOUDS BELOW 12,000 FEET WITH NO
SIGNIFICANT WEATHER AND/OR OBSTRUCTIONS TO VISIBILITY.

ARZ001-003-010-029-012100-
NORTHWEST ARKANSAS

CITY           SKY/WX    TMP DP  RH WIND       PRES   REMARKS
FAYETTEVILLE   SUNNY     67  48  50 W6        30.01F
FORT SMITH     SUNNY     73  49  42 W8        30.00S
HARRISON       SUNNY     71  49  45 VRB7      29.99F
BENTONVILLE    SUNNY     64  45  48 NW12G17   30.04S
ROGERS         SUNNY     64  47  53 NW9G21    30.03S
SILOAM SPGS    SUNNY     64  45  48 NW7       30.04S
HIGHFILL       SUNNY     66  48  52 NW14G21   30.03S
SPRINGDALE     SUNNY     66  48  52 NW12      30.04S
$$

ARZ004-005-016-012100-
NORTH CENTRAL ARKANSAS

CITY           SKY/WX    TMP DP  RH WIND       PRES   REMARKS
BATESVILLE     SUNNY     75  57  53 NW6       29.95F
FLIPPIN        SUNNY    N/A N/A N/A N7        29.95S
MTN HOME       SUNNY     72  48  42 VRB6      29.97F
$$

ARZ040-041-012100-
WEST CENTRAL ARKANSAS

CITY           SKY/WX    TMP DP  RH WIND       PRES   REMARKS
MENA           SUNNY     77  52  41 N6        30.00F
MOUNT IDA      SUNNY     77  50  38 MISG      29.96S
$$

ARZ009-017-025-026-028-012100-
NORTHEAST ARKANSAS

CITY           SKY/WX    TMP DP  RH WIND       PRES   REMARKS
CORNING          N/A     77  63  61 SW10      29.93F
JONESBORO      SUNNY     78  63  59 VRB7      29.92F
NEWPORT        SUNNY     78  62  57 NW5       29.95F
WALNUT RIDGE   SUNNY     77  59  53 NW8       29.93F
BLYTHEVILLE    MOSUNNY   78  68  71 W9G17     29.92S
$$

ARZ022-023-033-042-044-012100-
CENTRAL ARKANSAS

CITY           SKY/WX    TMP DP  RH WIND       PRES   REMARKS
LITTLE ROCK    MOSUNNY   80  58  46 VRB7      29.94S
N LITTLE ROCK    N/A     77  59  52 N6        29.93S
JACKSONVILLE   SUNNY     79  63  58 VRB3      29.93F
SEARCY         MOSUNNY   79  64  61 VRB5      29.95S
HOT SPRINGS    SUNNY     79  56  45 MISG      29.96S
RUSSELLVILLE   SUNNY     75  51  43 VRB7      29.96F
$$

ARZ036-012100-
EAST ARKANSAS

CITY           SKY/WX    TMP DP  RH WIND       PRES   REMARKS
WEST MEMPHIS   CLOUDY    77  70  79 VRB3      29.92S
$$

ARZ050-053-066-070-073-012100-
SOUTHWEST ARKANSAS

CITY           SKY/WX    TMP DP  RH WIND       PRES   REMARKS
ARKADELPHIA    MOCLDY    80  70  71 VRB3      29.94F
CAMDEN         MOSUNNY   82  64  54 NW6       29.91F
TEXARKANA      SUNNY     79  60  52 NE6       29.94F
EL DORADO      MOSUNNY   84  70  62 VRB6      29.91S HX  88
DE QUEEN       SUNNY     79  54  41 NE7       29.93F
$$

ARZ056-057-069-012100-
SOUTHEAST ARKANSAS

CITY           SKY/WX    TMP DP  RH WIND       PRES   REMARKS
PINE BLUFF     CLOUDY    79  66  64 N6        29.93S
STUTTGART      SUNNY     79  66  65 NW8       29.93F
MONTICELLO     MOSUNNY   85  70  60 VRB3      29.90F HX  89

$$






USA.gov is the U.S. government's official web portal to all federal, state and local government web resources and services.